Regional Weather Roundup
Issued by NWS

Home | Current Version | Previous Version | Text Only | Print | Product List | Glossary On
Versions: 1 2 3 4 5 6 7 8 9 10 11 12 13 14 15 16 17 18 19 20 21 22 23 24 25 26 27
000
ASUS45 KBOU 171807
RWRCO

WEATHER ROUNDUP FOR COLORADO
NATIONAL WEATHER SERVICE DENVER/BOULDER CO
1200 PM MDT TUE OCT 17 2017

NOTE: "FAIR" INDICATES FEW OR NO CLOUDS BELOW 12000 FEET WITH NO
SIGNIFICANT WEATHER AND/OR OBSTRUCTIONS TO VISIBILITY.

COZ001>005-013-030-031-171900-
...NORTHWEST COLORADO...

CITY           SKY/WX    TMP DP  RH WIND       PRES   REMARKS
CRAIG          FAIR      62  10  13 VRB5      30.35F
HAYDEN         FAIR      59   7  12 VRB5      30.38F
MEEKER         FAIR      59  10  14 CALM      30.36F
RABBIT EARS PA FAIR      45   7  21 W6        30.51F
STEAMBOAT SPGS FAIR      54  14  20 CALM      30.37F
WALDEN         FAIR      57   3  11 SW10G22   30.40F
$$

COZ006>008-011-171900-
...WEST CENTRAL VALLEYS...

CITY           SKY/WX    TMP DP  RH WIND       PRES   REMARKS
GRAND JUNCTION FAIR      59  14  17 S6        30.35F
MONTROSE       FAIR      57  16  20 W5        30.38F
EAGLE          FAIR      49   9  19 CALM      30.42F
RIFLE          FAIR      55  12  18 CALM      30.37F
DELTA          FAIR      57  17  20 CALM      30.36F
NUCLA          FAIR      57   9  14 NW6       30.41F
$$

COZ017>023-064>068-171900-
...SOUTHWEST COLORADO...

CITY           SKY/WX    TMP DP  RH WIND       PRES   REMARKS
DURANGO        FAIR      62  18  18 CALM      30.39F
CORTEZ         FAIR      64  13  13 SW8       30.36F
PAGOSA SPRINGS FAIR      62   9  12 S3        30.43F
TELLURIDE      FAIR      59 -10   5 W3        30.51S
WOLF CREEK PAS FAIR      46  -8  10 NW3       30.67F
$$

COZ009-010-012-014-032>034-037-058>063-171900-
...CENTRAL COLORADO...

CITY           SKY/WX    TMP DP  RH WIND       PRES   REMARKS
ASPEN          FAIR      57  10  15 VRB5      30.41F
BUENA VISTA    FAIR      60   1   9 E3        30.39F
COPPER MTN     FAIR      46 -24   4 W13G20    30.61F
BERTHOUD PASS  FAIR      36  28  75 W26       30.60F
COTTONWOOD PAS FAIR      61  -6   6 E5        30.49F
GUNNISON       FAIR      47   6  18 VRB3      30.48F
KREMMLING      FAIR      54  12  19 CALM      30.43F
LEADVILLE      FAIR      55 -11   6 NW9G18    30.48F
MONARCH PASS   FAIR      41  -2  16 SW9       30.72F
SALIDA         NOT AVBL
SUNLIGHT       FAIR      48   1  14 SW6       30.59F
WILKERSON PASS FAIR      48  -6  10 NW6       30.57F
$$

COZ069>075-171900-
...SAN LUIS VALLEY/SANGRE DE CRISTO MOUNTAINS...

CITY           SKY/WX    TMP DP  RH WIND       PRES   REMARKS
ALAMOSA        FAIR      57  12  17 NW3       30.42F
DEL NORTE      FAIR      59  11  15 E6        30.44F
LA VETA PASS   FAIR      54  18  24 SW17      30.61F
SAGUACHE       FAIR      61   5  11 NW5       30.43F
$$

COZ035-036-038>040-171900-
...NORTHERN COLORADO FRONT RANGE...

CITY           SKY/WX    TMP DP  RH WIND       PRES   REMARKS
DENVER INTL AP FAIR      71   7   8 S3        30.22F
DMNS CITY PARK   N/A     71  11  10 SE10      30.20F
AURORA         MOSUNNY   71   9   9 S5        30.23F
FRONT RANGE AP MOSUNNY   73  12   9 VRB5      30.24F
ERIE MUNI ARPT FAIR      72   6   7 S9        30.25F
BOULDER MUN AP FAIR      68  28  22 CALM      30.21F
CENTENNIAL     FAIR      70  -1   6 VRB5      30.24F
BROOMFIELD     MOSUNNY   72  19  14 SE7       30.23F
FORT COLLINS   FAIR      65  22  19 S5        30.20F
LONGMONT       FAIR      69  25  18 SE3       30.21F
$$

COZ041-046-047-076>085-087-088-171900-
...PIKES PEAK/PALMER DIVIDE AND SOUTHERN FOOTHILLS...

CITY           SKY/WX    TMP DP  RH WIND       PRES   REMARKS
COLO. SPRINGS  FAIR      69  15  12 E8        30.29F
A. F. ACADEMY  FAIR      68   4   8 S7        30.28F
SCHRIEVER AFB  FAIR      68  14  12 SE9       30.28F
CHEYENNE MTN   FAIR      65  11  12 SE7       30.26F
ELLICOTT       FAIR     N/A N/A N/A S9        30.27F
FALCON         FAIR      68   9  10 SE5       30.33F
FORT CARSON    FAIR      70   3   7 SE5       30.26F
LIMON          FAIR      72  12  10 S13       30.24F
MONUMENT HILL  FAIR      64  10  12 S7        30.32F
CANON CITY     SUNNY     73  12   9 SW8       30.23F
WALSENBURG     FAIR      73  19  13 NE7       30.27F
TRINIDAD       FAIR      72  19  13 E6        30.26F
$$

COZ042>045-048>051-090-091-171900-
...NORTHEAST COLORADO...

CITY           SKY/WX    TMP DP  RH WIND       PRES   REMARKS
GREELEY ARPT   FAIR      63  27  25 CALM      30.21F
AKRON          FAIR      71  19  14 W13       30.19F
BURLINGTON     FAIR      76  19  11 E8        30.18F
WRAY           FAIR      73  25  16 CALM      30.16F
YUMA           NOT AVBL
STERLING       FAIR      70  32  24 SW10      30.15F
HOLYOKE        FAIR      79  25  13 S7        30.15F
FORT MORGAN    FAIR      70  20  15 SW6       30.19F
$$

COZ086-089-092>099-171900-
...SOUTHEAST COLORADO...

CITY           SKY/WX    TMP DP  RH WIND       PRES   REMARKS
PUEBLO         FAIR      72  19  13 S5        30.21F
LA JUNTA       FAIR      73  25  16 CALM      30.20F
LAMAR          FAIR      71  26  18 CALM      30.16F HAZE
SPRINGFIELD      N/A     73  32  22 NE7G17    30.17F
$$




USA.gov is the U.S. government's official web portal to all federal, state and local government web resources and services.